IZ0QWM-13 Scandriglia IT current weather conditions

sailwx.info

Wind from 021

Air temperature 3.9° C
Dewpoint 1.4° C

Last reported at 2015-Mar-06 01:44 UTC.
Time now 2015-Mar-06 02:50 UTC

Location: N 42°10' E 012°47'.
View on Google Maps.

See reports from other nearby stations

  
Tides and Currents Weather Stations Pressure Air Temp Water Temp Dewpoint Dewpoint Depression Visibility Wind Speed Wind Dir Waves Ship Positions
date/time (UTC)wind fromknots sea level pressurealtimeterstation pressurevisibilityair tempwater tempwave heightnotes
2015-Mar-06 01:44 021 3.9
2015-Mar-06 01:34 021 3.9
2015-Mar-06 01:24 139 3.9
2015-Mar-06 01:14 028 3.9
2015-Mar-06 01:04 053 1 gusting 6 3.9
2015-Mar-06 00:54 307 3.9
2015-Mar-06 00:44 037 3.9
2015-Mar-06 00:34 065 3.9
2015-Mar-06 00:24 042 3.9
2015-Mar-06 00:14 025 4.4
2015-Mar-06 00:04 082 4.4
2015-Mar-05 23:54 238 4.4
2015-Mar-05 23:44 063 1 gusting 4 4.4
2015-Mar-05 23:34 021 3 gusting 4 3.9
2015-Mar-05 23:24 045 3 gusting 3 3.9
2015-Mar-05 23:14 086 3.9
2015-Mar-05 23:04 082 0 gusting 4 3.9
2015-Mar-05 22:54 062 3.9
2015-Mar-05 22:44 224 1 gusting 7 3.9
2015-Mar-05 22:34 079 3.9
2015-Mar-05 22:24 077 4 gusting 7 3.9
2015-Mar-05 22:14 263 1 gusting 7 3.9
2015-Mar-05 22:03 082 2 gusting 7 3.9
2015-Mar-05 21:53 051 3.9
2015-Mar-05 21:43 107 4.4
2015-Mar-05 21:33 073 4.4
2015-Mar-05 21:23 063 4.4
2015-Mar-05 21:13 211 0 gusting 7 5.0
2015-Mar-05 21:03 176 3 gusting 7 5.0
2015-Mar-05 20:53 015 5.0
2015-Mar-05 20:43 080 5.0
2015-Mar-05 20:33 086 5.0
2015-Mar-05 20:23 103 4.4
2015-Mar-05 20:13 187 4.4
2015-Mar-05 20:03 076 4.4
2015-Mar-05 19:53 032 2 gusting 6 4.4
2015-Mar-05 19:43 051 4.4
2015-Mar-05 19:33 059 4.4
2015-Mar-05 19:23 051 4 gusting 6 4.4
2015-Mar-05 19:13 065 2 gusting 6 5.0
2015-Mar-05 19:03 058 5.0
2015-Mar-05 18:53 008 5.0
2015-Mar-05 18:43 028 5.0
2015-Mar-05 18:33 046 2 gusting 6 5.0
2015-Mar-05 18:23 022 5.0
2015-Mar-05 18:13 075 5.0
2015-Mar-05 18:03 024 5.0
2015-Mar-05 17:53 051 5.0
2015-Mar-05 17:43 162 5.0
2015-Mar-05 17:33 262 5.6
2015-Mar-05 17:23 020 5.0
2015-Mar-05 17:13 006 1 gusting 9 5.6
2015-Mar-05 17:03 020 5.6
2015-Mar-05 16:53 010 6.1
2015-Mar-05 16:43 065 6.1
2015-Mar-05 16:33 046 6.1
2015-Mar-05 16:23 076 3 gusting 9 6.1
2015-Mar-05 16:13 025 6.7
2015-Mar-05 16:03 359 6.7
2015-Mar-05 15:53 075 6.7
2015-Mar-05 15:43 046 6.7
2015-Mar-05 15:33 075 6.7
2015-Mar-05 15:23 049 6.7
2015-Mar-05 15:13 049 6.7
2015-Mar-05 15:03 076 6.7
2015-Mar-05 14:53 082 2 gusting 9 6.7
2015-Mar-05 14:43 060 2 gusting 9 7.2
2015-Mar-05 14:33 013 7.2
2015-Mar-05 14:23 097 7.2
2015-Mar-05 14:13 215 7.8
2015-Mar-05 14:03 069 7.8
2015-Mar-05 13:53 053 7.8
2015-Mar-05 13:43 198 2 gusting 9 7.8
2015-Mar-05 13:33 153 7.8
2015-Mar-05 13:23 069 7.8
2015-Mar-05 13:13 025 7.2
2015-Mar-05 13:03 176 2 gusting 9 7.8
2015-Mar-05 12:53 136 7.8
2015-Mar-05 12:43 037 7.8
2015-Mar-05 12:33 044 7.8
2015-Mar-05 12:23 354 7.8
2015-Mar-05 12:13 017 3 gusting 6 7.8
2015-Mar-05 12:03 165 7.8
2015-Mar-05 11:53 086 7.8
2015-Mar-05 11:43 077 7.8
2015-Mar-05 11:33 077 7.8
2015-Mar-05 11:23 060 7.8
2015-Mar-05 11:13 204 7.2
2015-Mar-05 10:53 062 7.2
2015-Mar-05 10:33 032 7.2
2015-Mar-05 10:23 030 7.8
2015-Mar-05 10:13 179 4 gusting 11 7.2
2015-Mar-05 10:03 347 7.2
2015-Mar-05 09:53 063 6.7
2015-Mar-05 09:43 096 6.1
2015-Mar-05 09:33 086 5.6
2015-Mar-05 09:23 101 5.0
2015-Mar-05 09:13 101 5.0
2015-Mar-05 09:03 020 2 gusting 11 5.6
2015-Mar-05 08:53 060 5 gusting 11 5.0
2015-Mar-05 08:43 090 5.0
2015-Mar-05 08:33 068 5.6
2015-Mar-05 08:23 045 5.0
2015-Mar-05 08:13 045 2 gusting 11 5.0
2015-Mar-05 08:03 066 5.0
2015-Mar-05 07:53 066 5.0
2015-Mar-05 07:43 087 5.0
2015-Mar-05 07:33 093 5.0
2015-Mar-05 07:23 025 5.6
2015-Mar-05 07:13 025 5.6
2015-Mar-05 07:03 072 5.6
2015-Mar-05 06:53 091 5.6
2015-Mar-05 06:43 006 5.6
2015-Mar-05 06:33 006 5.6
2015-Mar-05 06:23 006 5.0
2015-Mar-05 06:13 198 5.0
2015-Mar-05 06:03 198 5.0
2015-Mar-05 05:53 281 5.0
2015-Mar-05 05:43 018 5.6
2015-Mar-05 05:33 165 5.6
2015-Mar-05 05:23 165 5.6
2015-Mar-05 05:13 212 6.1
2015-Mar-05 05:03 096 6.7
2015-Mar-05 04:53 096 6.7
2015-Mar-05 04:43 060 7.2
2015-Mar-05 04:33 060 7.2
2015-Mar-05 04:23 060 7.2
2015-Mar-05 04:13 060 7.2
2015-Mar-05 04:03 060 7.8
2015-Mar-05 03:53 060 7.8
2015-Mar-05 03:43 060 7.8
2015-Mar-05 03:33 060 8.3
2015-Mar-05 03:23 060 8.3
2015-Mar-05 03:13 060 7.8
2015-Mar-05 03:03 060 8.3
2015-Mar-05 02:53 148 8.3
2015-Mar-05 02:43 148 8.3
2015-Mar-05 02:33 148 8.3
2015-Mar-05 02:23 148 8.3
2015-Mar-05 02:13 148 8.3
2015-Mar-05 02:03 148 8.9
2015-Mar-05 01:53 148 8.3
2015-Mar-05 01:43 148 8.9
2015-Mar-05 01:33 148 8.9
2015-Mar-05 01:23 148 8.9
2015-Mar-05 01:13 148 8.9
2015-Mar-05 01:03 148 9.4
2015-Mar-05 00:53 148 9.4
2015-Mar-05 00:43 148 9.4
2015-Mar-05 00:33 148 9.4
2015-Mar-05 00:23 148 9.4
2015-Mar-05 00:13 148 9.4
2015-Mar-05 00:03 148 9.4
2015-Mar-04 23:53 148 9.4
2015-Mar-04 23:43 148 9.4
2015-Mar-04 23:33 148 9.4
2015-Mar-04 23:23 148 9.4
2015-Mar-04 23:13 148 9.4
2015-Mar-04 23:03 148 9.4
2015-Mar-04 22:53 148 9.4
2015-Mar-04 22:43 148 9.4
2015-Mar-04 22:33 148 9.4
2015-Mar-04 22:23 148 9.4
2015-Mar-04 22:13 148 9.4
2015-Mar-04 22:03 148 10.0
2015-Mar-04 21:53 148 10.0
2015-Mar-04 21:43 148 10.0
2015-Mar-04 21:33 148 10.0
2015-Mar-04 21:23 148 10.0
2015-Mar-04 21:13 148 10.0
2015-Mar-04 21:03 148 10.0
2015-Mar-04 20:57 148 10.0
2015-Mar-04 20:47 148 10.0
2015-Mar-04 20:37 179 10.0
2015-Mar-04 20:27 179 10.0
2015-Mar-04 20:17 179 10.0
2015-Mar-04 20:07 179 10.0
2015-Mar-04 19:57 195 10.0
2015-Mar-04 19:47 181 10.0
2015-Mar-04 19:37 167 10.0
2015-Mar-04 19:27 170 10.0
2015-Mar-04 19:17 170 10.0
2015-Mar-04 19:07 170 10.0
2015-Mar-04 18:57 316 10.0
2015-Mar-04 18:47 345 10.0
2015-Mar-04 18:37 318 10.0
2015-Mar-04 18:27 291 10.6
2015-Mar-04 18:17 238 10.6
2015-Mar-04 18:07 274 1 gusting 14 10.6
2015-Mar-04 17:57 287 10.6
2015-Mar-04 17:47 287 10.6
2015-Mar-04 17:37 287 10.6
2015-Mar-04 17:27 287 10.6
2015-Mar-04 17:17 246 11.1
2015-Mar-04 17:07 314 2 gusting 14 11.1
2015-Mar-04 16:57 176 11.1
2015-Mar-04 16:47 165 11.1
2015-Mar-04 16:37 121 3 gusting 14 10.6
2015-Mar-04 16:27 104 4 gusting 14 10.6
2015-Mar-04 16:17 039 11.1
2015-Mar-04 16:07 183 6 gusting 14 11.1
2015-Mar-04 15:57 263 2 gusting 14 11.1
2015-Mar-04 15:47 328 3 gusting 14 11.7
2015-Mar-04 15:37 262 11.7
2015-Mar-04 15:27 219 3 gusting 14 11.7
2015-Mar-04 15:17 188 5 gusting 14 11.7
2015-Mar-04 15:07 301 12.2
2015-Mar-04 14:57 207 3 gusting 14 12.2
2015-Mar-04 14:47 169 12.2
2015-Mar-04 14:37 239 12.2
2015-Mar-04 14:27 183 4 gusting 14 12.2
2015-Mar-04 14:17 236 12.2
2015-Mar-04 14:07 218 2 gusting 14 12.8
2015-Mar-04 13:57 191 6 gusting 14 12.8
2015-Mar-04 13:47 191 4 gusting 19 13.3
2015-Mar-04 13:37 183 3 gusting 19 13.3
2015-Mar-04 13:27 181 10 gusting 19 13.3
2015-Mar-04 13:17 124 2 gusting 19 13.3
2015-Mar-04 13:07 195 1 gusting 19 13.3
2015-Mar-04 12:57 159 9 gusting 19 13.3
2015-Mar-04 12:47 212 6 gusting 11 13.3
2015-Mar-04 12:37 226 2 gusting 7 13.3
2015-Mar-04 12:27 335 3 gusting 7 13.3
2015-Mar-04 12:17 277 13.3
2015-Mar-04 12:07 249 13.3
2015-Mar-04 11:57 359 12.8
2015-Mar-04 11:47 004 2 gusting 7 13.3
2015-Mar-04 11:37 235 13.3
2015-Mar-04 11:27 263 13.3
2015-Mar-04 11:17 225 13.3
2015-Mar-04 11:07 013 13.3
2015-Mar-04 10:57 302 12.8
2015-Mar-04 10:47 252 2 gusting 7 12.8
2015-Mar-04 10:37 281 2 gusting 7 12.8
2015-Mar-04 10:27 207 2 gusting 7 12.2
2015-Mar-04 10:17 194 11.7
2015-Mar-04 10:07 270 11.7
2015-Mar-04 09:57 208 11.7
2015-Mar-04 09:47 163 11.1
2015-Mar-04 09:37 226 11.1
2015-Mar-04 09:27 158 1 gusting 7 11.1
2015-Mar-04 09:17 269 11.1
2015-Mar-04 09:07 188 10.6
2015-Mar-04 08:57 359 11.1
2015-Mar-04 08:47 249 10.6
2015-Mar-04 08:37 359 11.1
2015-Mar-04 08:27 359 11.1
2015-Mar-04 08:17 068 11.7
2015-Mar-04 08:07 068 11.1
2015-Mar-04 07:57 068 10.6
2015-Mar-04 07:47 094 10.6
2015-Mar-04 07:37 094 9.4
2015-Mar-04 07:27 094 8.9
2015-Mar-04 07:17 094 8.3
2015-Mar-04 07:07 094 7.8
2015-Mar-04 06:57 094 7.8
2015-Mar-04 06:47 094 7.8
2015-Mar-04 06:37 094 7.8
2015-Mar-04 06:27 094 7.2
2015-Mar-04 06:17 094 7.2
2015-Mar-04 06:07 073 7.2
2015-Mar-04 05:57 073 7.8
2015-Mar-04 05:47 073 7.8
2015-Mar-04 05:36 073 7.8
2015-Mar-04 05:26 073 7.8
2015-Mar-04 05:16 073 7.8
2015-Mar-04 05:06 073 7.2
2015-Mar-04 04:56 073 7.8
2015-Mar-04 04:46 073 8.3
2015-Mar-04 04:36 073 7.8
2015-Mar-04 04:26 073 7.8
2015-Mar-04 04:16 073 7.8
2015-Mar-04 04:06 073 7.2
2015-Mar-04 03:56 073 7.2
2015-Mar-04 03:46 073 7.2
2015-Mar-04 03:36 073 7.8
2015-Mar-04 03:26 073 7.8
2015-Mar-04 03:16 063 7.8
2015-Mar-04 03:06 063 7.2
2015-Mar-04 02:56 063 7.2
2015-Mar-04 02:46 063 7.2
2015-Mar-04 02:36 063 7.2
2015-Mar-04 02:26 063 6.7
2015-Mar-04 02:16 063 6.7
2015-Mar-04 02:06 063 6.7